| time (UTC) | temp F | wind direction | speed MPH | gust MPH | rain 1hr in | rain 24hr in | rain mn in | humidity % | barometer mb |
| 20260504222009 | 62 | 207 | 2.0 | 9.0 | 0.00 | 0.00 | 0.00 | 51 | 1008.9 |
| 20260504221521 | 63 | 178 | 4.0 | 9.0 | 0.00 | 0.00 | 0.00 | 51 | 1008.9 |
| 20260504221003 | 64 | 338 | 2.0 | 11.0 | 0.00 | 0.00 | 0.00 | 48 | 1008.8 |
| 20260504220508 | 64 | 339 | 2.0 | 11.0 | 0.00 | 0.00 | 0.00 | 48 | 1008.8 |
| 20260504220031 | 64 | 56 | 3.0 | 12.0 | 0.00 | 0.00 | 0.00 | 49 | 1008.7 |
| 20260504215505 | 65 | 283 | 2.0 | 12.0 | 0.00 | 0.00 | 0.00 | 49 | 1008.6 |
| 20260504215004 | 65 | 275 | 3.0 | 13.0 | 0.00 | 0.00 | 0.00 | 47 | 1008.7 |
| 20260504214518 | 65 | 210 | 4.0 | 13.0 | 0.00 | 0.00 | 0.00 | 46 | 1008.8 |
| 20260504214010 | 66 | 222 | 4.0 | 14.0 | 0.00 | 0.00 | 0.00 | 47 | 1008.6 |
| 20260504213504 | 66 | 277 | 2.0 | 14.0 | 0.00 | 0.00 | 0.00 | 46 | 1008.6 |
| 20260504213010 | 66 | 236 | 3.0 | 14.0 | 0.00 | 0.00 | 0.00 | 46 | 1008.7 |
| 20260504212505 | 67 | 325 | 3.0 | 11.0 | 0.00 | 0.00 | 0.00 | 45 | 1008.5 |
| 20260504212006 | 67 | 321 | 2.0 | 12.0 | 0.00 | 0.00 | 0.00 | 46 | 1008.6 |
| 20260504211514 | 67 | 360 | 3.0 | 12.0 | 0.00 | 0.00 | 0.00 | 46 | 1008.5 |
| 20260504211003 | 67 | 349 | 4.0 | 13.0 | 0.00 | 0.00 | 0.00 | 44 | 1008.5 |
| 20260504210508 | 68 | 350 | 5.0 | 14.0 | 0.00 | 0.00 | 0.00 | 44 | 1008.4 |
| 20260504210022 | 68 | 352 | 4.0 | 14.0 | 0.00 | 0.00 | 0.00 | 41 | 1008.4 |
| 20260504205506 | 69 | 28 | 4.0 | 10.0 | 0.00 | 0.00 | 0.00 | 41 | 1008.4 |
| 20260504205005 | 69 | 243 | 2.0 | 10.0 | 0.00 | 0.00 | 0.00 | 42 | 1008.5 |
| 20260504204523 | 69 | 238 | 2.0 | 10.0 | 0.00 | 0.00 | 0.00 | 41 | 1008.4 |
| 20260504204009 | 69 | 340 | 4.0 | 12.0 | 0.00 | 0.00 | 0.00 | 43 | 1008.4 |
| 20260504203505 | 68 | 325 | 4.0 | 12.0 | 0.00 | 0.00 | 0.00 | 43 | 1008.5 |
| 20260504203011 | 68 | 347 | 4.0 | 11.0 | 0.00 | 0.00 | 0.00 | 43 | 1008.5 |
| 20260504202506 | 68 | 352 | 3.0 | 14.0 | 0.00 | 0.00 | 0.00 | 41 | 1008.3 |
| 20260504202004 | 69 | 237 | 4.0 | 14.0 | 0.00 | 0.00 | 0.00 | 40 | 1008.6 |
| 20260504201515 | 69 | 300 | 5.0 | 14.0 | 0.00 | 0.00 | 0.00 | 40 | 1008.5 |
| 20260504201005 | 69 | 301 | 5.0 | 15.0 | 0.00 | 0.00 | 0.00 | 39 | 1008.4 |
| 20260504200507 | 69 | 336 | 5.0 | 15.0 | 0.00 | 0.00 | 0.00 | 40 | 1008.4 |
| 20260504200012 | 70 | 331 | 6.0 | 14.0 | 0.00 | 0.00 | 0.00 | 39 | 1008.4 |
| 20260504195504 | 70 | 360 | 3.0 | 16.0 | 0.00 | 0.00 | 0.00 | 36 | 1008.3 |
| 20260504195007 | 70 | 37 | 5.0 | 16.0 | 0.00 | 0.00 | 0.00 | 37 | 1008.5 |
| 20260504194521 | 70 | 340 | 3.0 | 14.0 | 0.00 | 0.00 | 0.00 | 37 | 1008.4 |
| 20260504194004 | 70 | 310 | 4.0 | 14.0 | 0.00 | 0.00 | 0.00 | 39 | 1008.4 |
| 20260504193508 | 70 | 339 | 5.0 | 14.0 | 0.00 | 0.00 | 0.00 | 37 | 1008.5 |
| 20260504193028 | 70 | 240 | 5.0 | 14.0 | 0.00 | 0.00 | 0.00 | 40 | 1008.5 |
| 20260504192504 | 70 | 347 | 5.0 | 12.0 | 0.00 | 0.00 | 0.00 | 39 | 1008.6 |
| 20260504192007 | 68 | 288 | 4.0 | 12.0 | 0.00 | 0.00 | 0.00 | 40 | 1008.3 |
| 20260504191515 | 68 | 342 | 6.0 | 14.0 | 0.00 | 0.00 | 0.00 | 36 | 1008.3 |
| 20260504191003 | 70 | 347 | 4.0 | 14.0 | 0.00 | 0.00 | 0.00 | 40 | 1008.4 |
| 20260504190506 | 70 | 346 | 4.0 | 10.0 | 0.00 | 0.00 | 0.00 | 37 | 1008.4 |
| 20260504190015 | 70 | 325 | 3.0 | 10.0 | 0.00 | 0.00 | 0.00 | 36 | 1008.5 |
| 20260504185508 | 70 | 11 | 3.0 | 13.0 | 0.00 | 0.00 | 0.00 | 39 | 1008.5 |
| 20260504185006 | 70 | 13 | 3.0 | 13.0 | 0.00 | 0.00 | 0.00 | 38 | 1008.5 |
| 20260504184519 | 69 | 287 | 3.0 | 16.0 | 0.00 | 0.00 | 0.00 | 38 | 1008.6 |
| 20260504184007 | 69 | 350 | 6.0 | 16.0 | 0.00 | 0.00 | 0.00 | 38 | 1008.6 |
| 20260504183509 | 69 | 10 | 2.0 | 20.0 | 0.00 | 0.00 | 0.00 | 39 | 1008.5 |
| 20260504183014 | 68 | 224 | 6.0 | 20.0 | 0.00 | 0.00 | 0.00 | 38 | 1008.6 |
| 20260504182508 | 69 | 312 | 6.0 | 15.0 | 0.00 | 0.00 | 0.00 | 36 | 1008.8 |
| 20260504182006 | 70 | 286 | 5.0 | 14.0 | 0.00 | 0.00 | 0.00 | 36 | 1008.7 |
| 20260504181532 | 70 | 360 | 5.0 | 14.0 | 0.00 | 0.00 | 0.00 | 38 | 1008.7 |
| 20260504181009 | 69 | 333 | 4.0 | 14.0 | 0.00 | 0.00 | 0.00 | 38 | 1008.8 |
| 20260504180508 | 69 | 360 | 5.0 | 14.0 | 0.00 | 0.00 | 0.00 | 38 | 1008.7 |
| 20260504180027 | 69 | 86 | 4.0 | 12.0 | 0.00 | 0.00 | 0.00 | 36 | 1008.8 |
| 20260504175503 | 68 | 40 | 1.0 | 13.0 | 0.00 | 0.00 | 0.00 | 39 | 1008.9 |
| 20260504175006 | 69 | 325 | 6.0 | 17.0 | 0.00 | 0.00 | 0.00 | 36 | 1009.0 |
| 20260504174516 | 69 | 97 | 7.0 | 17.0 | 0.00 | 0.00 | 0.00 | 39 | 1009.1 |
| 20260504174004 | 68 | 320 | 4.0 | 13.0 | 0.00 | 0.00 | 0.00 | 39 | 1008.9 |
| 20260504173506 | 68 | 298 | 6.0 | 13.0 | 0.00 | 0.00 | 0.00 | 37 | 1009.1 |
| 20260504173020 | 69 | 158 | 5.0 | 13.0 | 0.00 | 0.00 | 0.00 | 34 | 1009.2 |
| 20260504172508 | 69 | 317 | 5.0 | 13.0 | 0.00 | 0.00 | 0.00 | 41 | 1009.1 |
| 20260504172010 | 69 | 9 | 4.0 | 14.0 | 0.00 | 0.00 | 0.00 | 38 | 1009.0 |
| 20260504171520 | 69 | 327 | 6.0 | 14.0 | 0.00 | 0.00 | 0.00 | 39 | 1009.0 |
| 20260504171008 | 69 | 21 | 4.0 | 12.0 | 0.00 | 0.00 | 0.00 | 36 | 1009.1 |
| 20260504170514 | 69 | 39 | 4.0 | 12.0 | 0.00 | 0.00 | 0.00 | 36 | 1009.3 |
| 20260504151002 | 66 | 327 | 6.0 | 17.0 | 0.00 | 0.00 | 0.00 | 36 | 1010.7 |
| 20260504150504 | 65 | 344 | 6.0 | 12.0 | 0.00 | 0.00 | 0.00 | 37 | 1010.8 |
| 20260504141004 | 63 | 344 | 4.0 | 11.0 | 0.00 | 0.00 | 0.00 | 44 | 1011.1 |
| 20260504140502 | 63 | 53 | 3.0 | 14.0 | 0.00 | 0.00 | 0.00 | 47 | 1011.1 |
| 20260504130508 | 59 | 113 | 2.0 | 10.0 | 0.00 | 0.00 | 0.00 | 53 | 1011.3 |
| 20260504110504 | 42 | 316 | 1.0 | 4.0 | 0.00 | 0.00 | 0.00 | 79 | 1011.6 |
| 20260504100507 | 36 | 38 | 0.0 | 0.0 | 0.00 | 0.00 | 0.00 | 87 | 1011.5 |
| 20260504082008 | 35 | 94 | 0.0 | 0.0 | 0.00 | 0.00 | 0.00 | 88 | 1010.8 |
| 20260504081524 | 35 | 94 | 0.0 | 0.0 | 0.00 | 0.00 | 0.00 | 88 | 1010.7 |
| 20260504081008 | 35 | 94 | 0.0 | 0.0 | 0.00 | 0.00 | 0.00 | 87 | 1010.7 |
| 20260504080509 | 36 | 94 | 0.0 | 0.0 | 0.00 | 0.00 | 0.00 | 87 | 1010.7 |
| 20260504050505 | 33 | 94 | 0.0 | 0.0 | 0.00 | 0.00 | 0.00 | 84 | 1010.8 |
| 20260504050013 | 33 | 94 | 0.0 | 0.0 | 0.00 | 0.00 | 0.00 | 84 | 1010.8 |
| 20260504045504 | 33 | 94 | 0.0 | 0.0 | 0.00 | 0.00 | 0.00 | 85 | 1010.9 |
| 20260504045006 | 33 | 94 | 0.0 | 0.0 | 0.00 | 0.00 | 0.00 | 84 | 1011.0 |
| 20260504044516 | 33 | 94 | 0.0 | 0.0 | 0.00 | 0.00 | 0.00 | 84 | 1011.0 |
| 20260504044003 | 33 | 94 | 0.0 | 0.0 | 0.00 | 0.00 | 0.00 | 83 | 1011.1 |
| 20260504043504 | 33 | 94 | 0.0 | 0.0 | 0.00 | 0.00 | 0.00 | 83 | 1011.1 |
| 20260504043018 | 33 | 94 | 0.0 | 0.0 | 0.00 | 0.00 | 0.00 | 83 | 1011.2 |
| 20260504042509 | 33 | 94 | 0.0 | 0.0 | 0.00 | 0.00 | 0.00 | 83 | 1011.1 |
| 20260504042004 | 33 | 94 | 0.0 | 0.0 | 0.00 | 0.00 | 0.00 | 83 | 1011.1 |
| 20260504041515 | 33 | 94 | 0.0 | 0.0 | 0.00 | 0.00 | 0.00 | 83 | 1011.0 |
| 20260504041004 | 33 | 94 | 0.0 | 0.0 | 0.00 | 0.00 | 0.00 | 82 | 1010.8 |
| 20260504040504 | 33 | 94 | 0.0 | 0.0 | 0.00 | 0.00 | 0.00 | 82 | 1010.8 |
| 20260504040008 | 34 | 94 | 0.0 | 0.0 | 0.00 | 0.00 | 0.00 | 82 | 1010.8 |
| 20260504035505 | 34 | 94 | 0.0 | 0.0 | 0.00 | 0.00 | 0.00 | 81 | 1010.8 |
| 20260504035005 | 34 | 94 | 0.0 | 0.0 | 0.00 | 0.00 | 0.00 | 81 | 1010.9 |
| 20260504034514 | 34 | 94 | 0.0 | 0.0 | 0.00 | 0.00 | 0.00 | 80 | 1010.8 |
| 20260504034005 | 34 | 94 | 0.0 | 0.0 | 0.00 | 0.00 | 0.00 | 80 | 1010.8 |
| 20260504033506 | 35 | 94 | 0.0 | 0.0 | 0.00 | 0.00 | 0.00 | 80 | 1010.7 |
| 20260504033033 | 35 | 94 | 0.0 | 0.0 | 0.00 | 0.00 | 0.00 | 80 | 1010.8 |
| 20260504032504 | 35 | 94 | 0.0 | 0.0 | 0.00 | 0.00 | 0.00 | 81 | 1010.8 |
| 20260504032007 | 35 | 94 | 0.0 | 0.0 | 0.00 | 0.00 | 0.00 | 81 | 1010.8 |
| 20260504031530 | 35 | 94 | 0.0 | 0.0 | 0.00 | 0.00 | 0.00 | 80 | 1010.7 |
| 20260504031006 | 35 | 94 | 0.0 | 0.0 | 0.00 | 0.00 | 0.00 | 80 | 1010.7 |
| 20260504030503 | 35 | 94 | 0.0 | 0.0 | 0.00 | 0.00 | 0.00 | 80 | 1010.6 |
| 20260504030021 | 35 | 94 | 0.0 | 0.0 | 0.00 | 0.00 | 0.00 | 78 | 1010.5 |
| 20260504025507 | 36 | 94 | 0.0 | 0.0 | 0.00 | 0.00 | 0.00 | 78 | 1010.6 |
| 20260504025003 | 36 | 94 | 0.0 | 0.0 | 0.00 | 0.00 | 0.00 | 77 | 1010.5 |
| 20260504024525 | 36 | 94 | 0.0 | 0.0 | 0.00 | 0.00 | 0.00 | 76 | 1010.4 |
| 20260504024007 | 36 | 94 | 0.0 | 0.0 | 0.00 | 0.00 | 0.00 | 75 | 1010.4 |
| 20260504023505 | 36 | 94 | 0.0 | 0.0 | 0.00 | 0.00 | 0.00 | 76 | 1010.4 |
| 20260504023014 | 37 | 94 | 0.0 | 0.0 | 0.00 | 0.00 | 0.00 | 76 | 1010.4 |
| 20260504022506 | 37 | 94 | 0.0 | 0.0 | 0.00 | 0.00 | 0.00 | 75 | 1010.4 |
| 20260504022014 | 37 | 94 | 0.0 | 0.0 | 0.00 | 0.00 | 0.00 | 74 | 1010.3 |
| 20260504021521 | 37 | 94 | 0.0 | 0.0 | 0.00 | 0.00 | 0.00 | 74 | 1010.3 |
| 20260504021003 | 37 | 94 | 0.0 | 0.0 | 0.00 | 0.00 | 0.00 | 74 | 1010.3 |
| 20260504020506 | 37 | 94 | 0.0 | 0.0 | 0.00 | 0.00 | 0.00 | 73 | 1010.3 |
| 20260504020026 | 38 | 94 | 0.0 | 0.0 | 0.00 | 0.00 | 0.00 | 72 | 1010.3 |
| 20260504015506 | 38 | 94 | 0.0 | 0.0 | 0.00 | 0.00 | 0.00 | 72 | 1010.4 |
| 20260504015007 | 38 | 94 | 0.0 | 0.0 | 0.00 | 0.00 | 0.00 | 71 | 1010.3 |
| 20260504014524 | 38 | 94 | 0.0 | 0.0 | 0.00 | 0.00 | 0.00 | 70 | 1010.2 |
| 20260504014010 | 38 | 94 | 0.0 | 0.0 | 0.00 | 0.00 | 0.00 | 69 | 1010.2 |
| 20260504013502 | 39 | 94 | 0.0 | 0.0 | 0.00 | 0.00 | 0.00 | 70 | 1010.2 |
| 20260504013003 | 39 | 94 | 0.0 | 0.0 | 0.00 | 0.00 | 0.00 | 70 | 1010.1 |
| 20260504012503 | 39 | 94 | 0.0 | 0.0 | 0.00 | 0.00 | 0.00 | 69 | 1010.1 |
| 20260504012003 | 39 | 94 | 0.0 | 0.0 | 0.00 | 0.00 | 0.00 | 67 | 1010.1 |
| 20260504011504 | 40 | 94 | 0.0 | 0.0 | 0.00 | 0.00 | 0.00 | 67 | 1010.1 |
| 20260504011003 | 40 | 94 | 0.0 | 0.0 | 0.00 | 0.00 | 0.00 | 65 | 1010.0 |
| 20260504010502 | 40 | 94 | 0.0 | 0.0 | 0.00 | 0.00 | 0.00 | 65 | 1009.9 |
| 20260504010004 | 41 | 94 | 0.0 | 0.0 | 0.00 | 0.00 | 0.00 | 65 | 1009.7 |
| 20260504005504 | 41 | 94 | 0.0 | 0.0 | 0.00 | 0.00 | 0.00 | 64 | 1009.7 |
| 20260504005002 | 41 | 94 | 0.0 | 0.0 | 0.00 | 0.00 | 0.00 | 65 | 1009.6 |
| 20260504004508 | 42 | 94 | 0.0 | 0.0 | 0.00 | 0.00 | 0.00 | 65 | 1009.5 |
| 20260504004003 | 42 | 94 | 0.0 | 0.0 | 0.00 | 0.00 | 0.00 | 65 | 1009.4 |
| 20260504003503 | 42 | 94 | 0.0 | 0.0 | 0.00 | 0.00 | 0.00 | 66 | 1009.4 |
| 20260504003004 | 43 | 94 | 0.0 | 0.0 | 0.00 | 0.00 | 0.00 | 64 | 1009.4 |
| 20260504002504 | 43 | 94 | 0.0 | 0.0 | 0.00 | 0.00 | 0.00 | 63 | 1009.3 |
| 20260504002002 | 44 | 94 | 0.0 | 2.0 | 0.00 | 0.00 | 0.00 | 62 | 1009.2 |
| 20260504001504 | 44 | 94 | 0.0 | 2.0 | 0.00 | 0.00 | 0.00 | 62 | 1009.1 |
| 20260504001002 | 45 | 94 | 0.0 | 1.0 | 0.00 | 0.00 | 0.00 | 56 | 1009.0 |
| 20260504000502 | 46 | 94 | 0.0 | 1.0 | 0.00 | 0.00 | 0.00 | 55 | 1008.9 |
| 20260504000004 | 46 | 94 | 0.0 | 1.0 | 0.00 | 0.00 | 0.00 | 54 | 1008.8 |
| 20260503235503 | 47 | 94 | 0.0 | 1.0 | 0.00 | 0.00 | 0.00 | 53 | 1008.8 |
| 20260503235003 | 47 | 94 | 0.0 | 1.0 | 0.00 | 0.00 | 0.00 | 50 | 1008.9 |
| 20260503234504 | 47 | 94 | 0.0 | 1.0 | 0.00 | 0.00 | 0.00 | 50 | 1008.9 |
| 20260503234003 | 48 | 360 | 0.0 | 1.0 | 0.00 | 0.00 | 0.00 | 51 | 1008.9 |
| 20260503233502 | 49 | 360 | 0.0 | 5.0 | 0.00 | 0.00 | 0.00 | 48 | 1008.8 |
| 20260503233004 | 49 | 352 | 1.0 | 5.0 | 0.00 | 0.00 | 0.00 | 48 | 1008.8 |
| 20260503232502 | 49 | 352 | 0.0 | 4.0 | 0.00 | 0.00 | 0.00 | 48 | 1008.7 |
| 20260503232004 | 49 | 18 | 2.0 | 4.0 | 0.00 | 0.00 | 0.00 | 48 | 1008.7 |
| 20260503231505 | 49 | 347 | 1.0 | 4.0 | 0.00 | 0.00 | 0.00 | 49 | 1008.6 |
| 20260503231007 | 50 | 40 | 0.0 | 4.0 | 0.00 | 0.00 | 0.00 | 48 | 1008.7 |
| 20260503230504 | 50 | 331 | 0.0 | 6.0 | 0.00 | 0.00 | 0.00 | 46 | 1008.6 |
| 20260503230004 | 50 | 343 | 2.0 | 8.0 | 0.00 | 0.00 | 0.00 | 43 | 1008.6 |
| 20260503225503 | 51 | 23 | 2.0 | 8.0 | 0.00 | 0.00 | 0.00 | 43 | 1008.5 |
| 20260503225003 | 51 | 27 | 2.0 | 8.0 | 0.00 | 0.00 | 0.00 | 44 | 1008.5 |
| 20260503224504 | 51 | 5 | 3.0 | 10.0 | 0.00 | 0.00 | 0.00 | 43 | 1008.4 |
| 20260503224005 | 51 | 5 | 3.0 | 10.0 | 0.00 | 0.00 | 0.00 | 43 | 1008.4 |
| 20260503223503 | 51 | 346 | 2.0 | 13.0 | 0.00 | 0.00 | 0.00 | 45 | 1008.3 |
| 20260503223005 | 51 | 267 | 3.0 | 13.0 | 0.00 | 0.00 | 0.00 | 43 | 1008.2 |
| 20260503222502 | 51 | 360 | 3.0 | 11.0 | 0.00 | 0.00 | 0.00 | 44 | 1008.2 |